Regional Weather Roundup
Issued by NWS

Home | Current Version | Previous Version | Graphics & Text | Print | Product List | Glossary On
Versions: 1 2 3 4 5 6 7 8 9 10 11 12 13 14 15 16 17 18 19 20 21 22 23 24 25 26 27 28 29 30 31 32 33 34 35 36 37 38 39 40 41 42 43 44 45 46 47 48 49 50
985
ASUS43 KLMK 240702
RWRKY
KENTUCKY REGIONAL WEATHER ROUNDUP
NATIONAL WEATHER SERVICE LOUISVILLE KY
300 AM EDT WED AUG 24 2016

NOTE "FAIR" INDICATES FEW OR NO CLOUDS BELOW 12,000 FEET
WITH NO SIGNIFICANT WEATHER AND/OR OBSTRUCTIONS TO VISIBILITY.

KYZ001>023-026-027-061>063-070>075-240800-
WESTERN AND SOUTH CENTRAL KENTUCKY

CITY           SKY/WX    TMP DP  RH WIND       PRES   REMARKS
PADUCAH        CLOUDY    74  71  91 S8        30.12F
HENDERSON      CLEAR     70  66  88 S5        30.13F
OWENSBORO      CLOUDY    71  67  87 SE6       30.16F
HOPKINSVILLE   CLEAR     74  71  89 S3        30.17S
BOWLING GREEN  CLOUDY    72  69  90 CALM      30.19S
GLASGOW        CLEAR     67  67 100 CALM      30.20S
$$

KYZ024-025-028>034-038-045-046-053-240800-
NORTH CENTRAL KENTUCKY

CITY           SKY/WX    TMP DP  RH WIND       PRES   REMARKS
LOUISVILLE/SDF PTCLDY    72  65  78 SE7       30.17F
LOUISVILLE/LOU PTCLDY    72  64  76 CALM      30.18F
FORT KNOX      PTCLDY    68  66  95 SE1       30.17F
$$

KYZ035>037-039>044-047>052-055>060-089>105-240800-
NORTHEAST KENTUCKY

CITY           SKY/WX    TMP DP  RH WIND       PRES   REMARKS
LEXINGTON      CLOUDY    67  62  84 CALM      30.22S
COVINGTON      CLOUDY    70  62  76 S9        30.20S
FRANKFORT      CLEAR     68  62  81 SE3       30.20S
$$

KYZ054-064>069-076>088-106>120-240800-
SOUTHEAST KENTUCKY

CITY           SKY/WX    TMP DP  RH WIND       PRES   REMARKS
JACKSON        PTCLDY    67  62  84 S3        30.24S
LONDON         CLEAR     66  62  87 CALM      30.24S
SOMERSET       CLOUDY    64  64 100 CALM      30.24S
MIDDLESBORO    CLEAR     63  63 100 CALM      30.26F
MONTICELLO     CLOUDY   N/A N/A N/A W12       30.24S
$$





USA.gov is the U.S. government's official web portal to all federal, state and local government web resources and services.